Location: Chervonnoye
(48.6000°N, 34.4000°E)
Time: 14:05:11
(UTC+00:00)

CAS-4B - Pass Details

Date: 08 December 2021
Orbit: 529 x 538 km, 43.0° (Epoch: 21 January)

Event Time Altitude Azimuth Distance (km) Brightness Sun altitude
Rises 16:12:59 0° 217° (SW) 2,673 ? -23.1°
Reaches altitude 10° 16:15:44 10° 199° (SSW) 1,783 ? -23.6°
Enters shadow 16:17:27 17° 176° (S) 1,411 ? -23.8°
